Location: Newark
(58.8333°N, 23.5833°E)
Time: 06:05:00
(UTC+00:00)

Explorer 7 - Pass Details

Date: 19 November 2019
Orbit: 485 x 680 km, 50.3° (Epoch: 14 December)

Event Time Altitude Azimuth Distance (km) Brightness Sun altitude
Rises 04:08:17 0° 266° (W) 2,761 - -16.8°
Reaches altitude 10° 04:12:15 10° 229° (SW) 1,803 - -16.3°
Exits shadow 04:12:58 11° 219° (SW) 1,746 9.1 -16.2°
Maximum altitude 04:13:17 11° 215° (SW) 1,736 9.1 -16.2°
Drops below altitude 10° 04:14:18 10° 200° (SSW) 1,774 9.3 -16.1°
Sets 04:18:05 0° 162° (SSE) 2,610 10.7 -15.6°
